Date String (YYYY-MM-DD hh:mm:ss) UTC,Instrument flags,Ambient pressure (hPa),Sample flow (lpm),Bypass flow (lpm),Sample temperature (°C),Ambient temperature (°C),ASC tube jacket temperature (°C),LED temperature (°C),Box temperature (°C),Sample RH (%),Span deviation,Mass concentration (μg/m³),Mass concentration (μg/m³),Mass concentration (μg/m³)
DateTimeUTC,F1_M11,P_M11,Q1_M11,Q2_M11,T1_M11,T2_M11,T3_M11,T4_M11,T5_M11,U1_M11,ZSPAN_M11,X0_M11,X2_M11,X1_M11
2023-01-15 11:00:00,,0812.3,5.01,0.00,22.3,20.9,00.0,31.3,24.0,13.6,0000.0,0004.29,0003.30,0003.20
2023-01-15 11:01:00,,0812.3,4.99,0.00,22.3,20.9,00.0,31.3,23.9,13.7,0000.0,0004.30,0003.27,0003.16
2023-01-15 11:02:00,,0812.3,4.98,0.00,22.3,20.9,00.0,31.3,23.9,13.8,0000.0,0004.37,0003.26,0003.14
2023-01-15 11:03:00,,0812.3,5.00,0.00,22.3,20.9,00.0,31.3,23.9,13.8,0000.0,0004.56,0003.27,0003.13
2023-01-15 11:04:00,,0812.3,5.01,0.00,22.3,20.8,00.0,31.2,23.9,13.8,0000.0,0004.68,0003.26,0003.10
2023-01-15 11:05:00,,0812.2,5.00,0.00,22.3,20.8,00.0,31.2,24.0,13.9,0000.0,0004.62,0003.23,0003.05
2023-01-15 11:06:00,,0812.2,4.99,0.00,22.3,20.8,00.0,31.2,23.9,13.8,0000.0,0004.24,0003.21,0002.99
2023-01-15 11:07:00,,0812.2,5.00,0.00,22.3,20.8,00.0,31.2,23.9,13.8,0000.0,0004.16,0003.17,0002.93
2023-01-15 11:08:00,,0812.2,4.99,0.00,22.2,20.8,00.0,31.2,23.9,13.9,0000.0,0004.11,0003.14,0002.90
2023-01-15 11:09:00,,0812.2,5.01,0.00,22.2,20.8,00.0,31.2,23.9,13.9,0000.0,0004.00,0003.11,0002.88
2023-01-15 11:10:00,,0812.2,5.01,0.00,22.2,20.8,00.0,31.2,23.9,13.9,0000.0,0003.92,0003.11,0002.87
2023-01-15 11:11:00,,0812.2,5.01,0.00,22.2,20.8,00.0,31.2,23.8,13.9,0000.0,0003.98,0003.12,0002.87
2023-01-15 11:12:00,,0812.2,4.99,0.00,22.2,20.8,00.0,31.2,23.8,13.9,0000.0,0003.87,0003.10,0002.85
2023-01-15 11:13:00,,0812.2,5.01,0.00,22.2,20.8,00.0,31.2,23.9,13.9,0000.0,0003.70,0003.01,0002.79
2023-01-15 11:14:00,,0812.2,4.99,0.00,22.2,20.8,00.0,31.2,23.9,13.9,0000.0,0003.39,0002.89,0002.72
2023-01-15 11:15:00,,0812.2,5.00,0.00,22.2,20.8,00.0,31.2,23.8,13.9,0000.0,0003.08,0002.75,0002.62
2023-01-15 11:16:00,,0812.2,5.00,0.00,22.2,20.8,00.0,31.2,23.8,13.9,0000.0,0002.95,0002.64,0002.50
2023-01-15 11:17:00,,0812.2,5.00,0.00,22.2,20.8,00.0,31.1,23.8,13.8,0000.0,0002.90,0002.51,0002.39
2023-01-15 11:18:00,,0812.1,5.00,0.00,22.2,20.8,00.0,31.1,23.8,13.7,0000.0,0002.81,0002.42,0002.29
2023-01-15 11:19:00,,0812.1,5.00,0.00,22.2,20.8,00.0,31.1,23.8,13.7,0000.0,0002.73,0002.32,0002.19
2023-01-15 11:20:00,,0812.2,5.00,0.00,22.2,20.8,00.0,31.1,23.9,13.6,0000.0,0002.65,0002.22,0002.07
2023-01-15 11:21:00,,0812.2,5.00,0.00,22.2,20.7,00.0,31.1,23.9,13.5,0000.0,0002.50,0002.09,0001.95
2023-01-15 11:22:00,,0812.3,5.00,0.00,22.1,20.6,00.0,31.1,23.9,14.0,0000.0,0002.36,0001.98,0001.87
2023-01-15 11:23:00,,0812.3,5.00,0.00,22.1,20.4,00.0,31.1,23.8,14.5,0000.0,0002.45,0002.05,0001.91
2023-01-15 11:24:00,,0812.3,5.01,0.00,22.1,20.3,00.0,31.1,23.7,14.6,0000.0,0002.54,0002.14,0001.99
2023-01-15 11:25:00,,0812.3,5.00,0.00,22.0,20.2,00.0,31.1,23.7,14.6,0000.0,0002.76,0002.31,0002.14
2023-01-15 11:26:00,,0812.3,4.98,0.00,22.0,20.1,00.0,31.1,23.6,14.6,0000.0,0003.86,0002.59,0002.37
2023-01-15 11:27:00,,0812.2,5.01,0.00,22.0,20.0,00.0,31.0,23.5,14.7,0000.0,0005.51,0002.82,0002.57
2023-01-15 11:28:00,,0812.2,4.99,0.00,21.9,19.8,00.0,31.0,23.5,14.6,0000.0,0005.48,0002.93,0002.70
2023-01-15 11:29:00,,0812.2,5.01,0.00,21.9,19.8,00.0,31.0,23.4,14.6,0000.0,0005.56,0003.00,0002.76
2023-01-15 11:30:00,,0812.2,5.00,0.00,21.8,19.8,00.0,31.0,23.4,14.5,0000.0,0005.72,0003.09,0002.80
2023-01-15 11:31:00,,0812.1,4.99,0.00,21.8,19.8,00.0,30.9,23.4,14.4,0000.0,0005.75,0003.11,0002.82
2023-01-15 11:32:00,,0812.2,5.01,0.00,21.8,19.8,00.0,30.9,23.3,14.3,0000.0,0005.80,0003.13,0002.86
2023-01-15 11:33:00,,0812.2,5.00,0.00,21.7,19.8,00.0,30.9,23.3,14.3,0000.0,0005.81,0003.14,0002.86
2023-01-15 11:34:00,,0812.1,5.00,0.00,21.8,20.4,00.0,30.8,23.5,14.4,0000.0,0005.68,0003.04,0002.78
2023-01-15 11:35:00,,0812.1,5.00,0.00,21.9,21.4,00.0,30.8,23.7,14.3,0000.0,0005.54,0002.90,0002.65
2023-01-15 11:36:00,,0812.1,5.00,0.00,22.0,22.1,00.0,30.8,24.0,14.3,0000.0,0005.29,0002.69,0002.47
2023-01-15 11:37:00,,0812.0,4.99,0.00,22.0,21.8,00.0,30.8,23.9,14.2,0000.0,0004.09,0002.35,0002.16
2023-01-15 11:38:00,,0812.0,4.99,0.00,22.0,21.3,00.0,30.9,23.8,14.1,0000.0,0002.43,0002.10,0001.95
2023-01-15 11:39:00,,0812.0,5.01,0.00,22.0,21.0,00.0,30.9,23.7,14.1,0000.0,0002.27,0001.95,0001.82
2023-01-15 11:40:00,,0811.9,5.00,0.00,22.0,20.7,00.0,30.9,23.6,14.1,0000.0,0002.30,0001.86,0001.71
2023-01-15 11:41:00,,0811.8,4.99,0.00,21.9,20.5,00.0,30.9,23.6,14.1,0000.0,0002.22,0001.76,0001.64
2023-01-15 11:42:00,,0811.9,4.98,0.00,21.9,20.4,00.0,30.9,23.5,14.1,0000.0,0002.13,0001.70,0001.58
2023-01-15 11:43:00,,0811.8,5.00,0.00,21.9,20.3,00.0,30.9,23.5,14.2,0000.0,0002.19,0001.68,0001.56
2023-01-15 11:44:00,,0811.8,4.99,0.00,21.8,20.2,00.0,30.9,23.5,14.1,0000.0,0002.16,0001.66,0001.54
2023-01-15 11:45:00,,0811.7,5.00,0.00,21.8,20.1,00.0,30.8,23.4,14.1,0000.0,0002.15,0001.63,0001.49
2023-01-15 11:46:00,,0811.7,5.01,0.00,21.8,20.0,00.0,30.8,23.4,14.1,0000.0,0002.32,0001.60,0001.43
2023-01-15 11:47:00,,0811.7,4.99,0.00,21.8,20.0,00.0,30.8,23.4,14.0,0000.0,0002.50,0001.56,0001.36
2023-01-15 11:48:00,,0811.7,5.00,0.00,21.8,20.1,00.0,30.8,23.4,14.0,0000.0,0002.46,0001.50,0001.29
2023-01-15 11:49:00,,0811.7,5.01,0.00,21.7,20.1,00.0,30.8,23.4,14.0,0000.0,0002.38,0001.41,0001.20
2023-01-15 11:50:00,,0811.7,5.01,0.00,21.7,20.0,00.0,30.8,23.3,14.0,0000.0,0002.30,0001.32,0001.10
2023-01-15 11:51:00,,0811.7,5.02,0.00,21.7,20.0,00.0,30.8,23.3,14.0,0000.0,0002.09,0001.24,0001.05
2023-01-15 11:52:00,,0811.8,5.00,0.00,21.7,20.1,00.0,30.7,23.3,14.0,0000.0,0001.90,0001.17,0001.00
2023-01-15 11:53:00,,0811.7,5.01,0.00,21.7,20.1,00.0,30.7,23.3,14.0,0000.0,0001.82,0001.10,0000.95
2023-01-15 11:54:00,,0811.7,4.99,0.00,21.7,20.1,00.0,30.7,23.4,14.1,0000.0,0001.67,0001.03,0000.88
2023-01-15 11:55:00,,0811.7,5.01,0.00,21.7,20.1,00.0,30.7,23.4,14.1,0000.0,0001.64,0000.96,0000.79
2023-01-15 11:56:00,,0811.7,5.00,0.00,21.7,20.2,00.0,30.7,23.4,14.0,0000.0,0001.55,0000.89,0000.74
2023-01-15 11:57:00,,0811.7,5.01,0.00,21.7,20.2,00.0,30.7,23.4,14.0,0000.0,0001.32,0000.84,0000.70
2023-01-15 11:58:00,,0811.6,5.00,0.00,21.7,20.2,00.0,30.7,23.4,13.9,0000.0,0001.10,0000.80,0000.68
2023-01-15 11:59:00,,0811.6,5.00,0.00,21.7,20.2,00.0,30.7,23.4,13.9,0000.0,0001.13,0000.81,0000.68
